Crosby, ND

9:45 AM CST on December 06, 2019 (GMT -0600)
Crosby

Weather History for KD50 - August, 2019

Change the Weather History Date:

Friday, August 16, 2019

  Actual Average (KISN) Record (KISN)
Temperature  
Mean Temperature 70 °F -  
Max Temperature 86 °F 84 °F 103 °F (2003)
Min Temperature 53 °F 55 °F 40 °F (2002)
Cooling Degree Days 4    
Growing Degree Days 20 (Base 50)    
Moisture  
Dew Point 53 °F    
Average Humidity 67    
Maximum Humidity 100    
Minimum Humidity 23    
Precipitation  
Precipitation 0.00 in - - ()
Sea Level Pressure  
Sea Level Pressure 29.75 in    
Wind  
Wind Speed 10 mph (WSW)    
Max Wind Speed 20 mph    
Max Gust Speed 28 mph    
Visibility 10 miles    
Events      
Averages and records for this station are not official NWS values.
T = Trace of Precipitation, MM = Missing Value Source: NWS Daily Summary

Daily Weather History Graph

Daily Weather History Graph

Search for Another Location

Airport or City:

Astronomy

Aug. 16, 2019 Rise Set
Actual Time 6:46 AM CDT 9:07 PM CDT
Civil Twilight 6:11 AM CDT 9:41 PM CDT
Nautical Twilight 5:28 AM CDT 10:25 PM CDT
Astronomical Twilight 4:37 AM CDT 11:15 PM CDT
Moon 10:03 PM CDT (8/16) 7:41 AM CDT (8/16)
Length of Visible Light 15h 29m
Length of Day
14h 20m
Full, 99% of the Moon is Illuminated
Aug 16
Full
Aug 23
Last Quarter
Aug 30
New
Sep 5
First Quarter
Sep 13
Full

Hourly Weather History & Observations

Time (CDT) Temp. Dew Point Humidity Pressure Visibility Wind Dir Wind Speed Gust Speed Precip Events Conditions
12:15 AM 59.0 °F 59.0 °F 100% 29.85 in 10.0 mi SSW 9.2 mph - N/A   Mostly Cloudy
12:35 AM 59.0 °F 59.0 °F 100% 29.85 in 10.0 mi SSW 9.2 mph - N/A   Mostly Cloudy
12:55 AM 57.2 °F 57.2 °F 100% 29.85 in 10.0 mi SW 8.1 mph - N/A   Partly Cloudy
1:15 AM 57.2 °F 57.2 °F 100% 29.85 in 10.0 mi SW 8.1 mph - N/A   Partly Cloudy
1:35 AM 57.2 °F 57.2 °F 100% 29.85 in 10.0 mi SSW 8.1 mph - N/A   Clear
1:55 AM 57.2 °F 57.2 °F 100% 29.84 in 10.0 mi SW 4.6 mph - N/A   Partly Cloudy
2:15 AM 55.4 °F 55.4 °F 100% 29.84 in 10.0 mi SW 5.8 mph - N/A   Partly Cloudy
2:35 AM 55.4 °F 55.4 °F 100% 29.83 in 10.0 mi SW 4.6 mph - N/A   Scattered Clouds
2:55 AM 55.4 °F 55.4 °F 100% 29.83 in 10.0 mi SSW 4.6 mph - N/A   Scattered Clouds
3:15 AM 55.4 °F 55.4 °F 100% 29.83 in 10.0 mi SSW 5.8 mph - N/A   Scattered Clouds
3:35 AM 53.6 °F 53.6 °F 100% 29.83 in 10.0 mi SW 3.5 mph - N/A   Scattered Clouds
3:55 AM 53.6 °F 53.6 °F 100% 29.82 in 10.0 mi SW 6.9 mph - N/A   Scattered Clouds
4:15 AM 53.6 °F 53.6 °F 100% 29.82 in 10.0 mi Calm Calm - N/A   Partly Cloudy
4:35 AM 53.6 °F 53.6 °F 100% 29.82 in 10.0 mi SW 3.5 mph - N/A   Partly Cloudy
4:55 AM 53.6 °F 53.6 °F 100% 29.81 in 10.0 mi SSW 4.6 mph - N/A   Partly Cloudy
5:15 AM 53.6 °F 53.6 °F 100% 29.81 in 8.0 mi SSW 5.8 mph - N/A   Partly Cloudy
5:35 AM 53.6 °F 53.6 °F 100% 29.81 in 8.0 mi SSW 4.6 mph - N/A   Partly Cloudy
5:55 AM 53.6 °F 53.6 °F 100% 29.81 in 10.0 mi SSW 9.2 mph - N/A   Scattered Clouds
6:15 AM 53.6 °F 53.6 °F 100% 29.80 in 9.0 mi SSW 8.1 mph - N/A   Partly Cloudy
6:35 AM 53.6 °F 53.6 °F 100% 29.80 in 7.0 mi SSW 9.2 mph - N/A   Clear
6:55 AM 53.6 °F 53.6 °F 100% 29.80 in 7.0 mi SSW 9.2 mph - N/A   Clear
7:15 AM 53.6 °F 53.6 °F 100% 29.81 in 7.0 mi SSW 10.4 mph - N/A   Clear
7:35 AM 55.4 °F 55.4 °F 100% 29.80 in 8.0 mi SSW 9.2 mph - N/A   Clear
7:55 AM 55.4 °F 55.4 °F 100% 29.80 in 8.0 mi SSW 9.2 mph - N/A   Clear
8:15 AM 57.2 °F 57.2 °F 100% 29.80 in 9.0 mi SSW 11.5 mph - N/A   Clear
8:35 AM 57.2 °F 57.2 °F 100% 29.79 in 9.0 mi SSW 10.4 mph - N/A   Clear
8:55 AM 59.0 °F 59.0 °F 100% 29.79 in 9.0 mi SSW 10.4 mph - N/A   Clear
9:15 AM 62.6 °F 59.0 °F 88% 29.79 in 10.0 mi SSW 6.9 mph - N/A   Partly Cloudy
9:35 AM 66.2 °F 55.4 °F 68% 29.78 in 9.0 mi SSW 10.4 mph - N/A   Partly Cloudy
9:55 AM 68.0 °F 55.4 °F 64% 29.78 in 9.0 mi SW 11.5 mph - N/A   Clear
10:15 AM 69.8 °F 55.4 °F 60% 29.78 in 9.0 mi SSW 10.4 mph - N/A   Clear
10:35 AM 71.6 °F 53.6 °F 53% 29.77 in 10.0 mi SSW 9.2 mph - N/A   Partly Cloudy
10:55 AM 73.4 °F 55.4 °F 53% 29.77 in 10.0 mi SSW 6.9 mph - N/A   Partly Cloudy
11:15 AM 75.2 °F 53.6 °F 47% 29.76 in 10.0 mi SSW 8.1 mph - N/A   Partly Cloudy
11:35 AM 75.2 °F 53.6 °F 47% 29.75 in 10.0 mi SSW 10.4 mph - N/A   Partly Cloudy
11:55 AM 78.8 °F 53.6 °F 42% 29.74 in 10.0 mi SSW 10.4 mph 17.3 mph N/A   Clear
12:15 PM 78.8 °F 51.8 °F 39% 29.74 in 10.0 mi SW 13.8 mph - N/A   Clear
12:35 PM 80.6 °F 51.8 °F 37% 29.73 in 10.0 mi SSW 15.0 mph 20.7 mph N/A   Clear
12:55 PM 80.6 °F 51.8 °F 37% 29.72 in 10.0 mi SSW 16.1 mph 23.0 mph N/A   Clear
1:15 PM 82.4 °F 51.8 °F 35% 29.72 in 10.0 mi SSW 17.3 mph 25.3 mph N/A   Clear
1:35 PM 82.4 °F 51.8 °F 35% 29.71 in 10.0 mi SSW 16.1 mph 23.0 mph N/A   Clear
1:55 PM 84.2 °F 51.8 °F 33% 29.70 in 10.0 mi SW 17.3 mph 24.2 mph N/A   Clear
2:15 PM 84.2 °F 50.0 °F 30% 29.69 in 10.0 mi SW 19.6 mph - N/A   Clear
2:35 PM 84.2 °F 50.0 °F 30% 29.69 in 10.0 mi WSW 16.1 mph 23.0 mph N/A   Clear
2:55 PM 86.0 °F 48.2 °F 27% 29.69 in 10.0 mi WSW 16.1 mph 27.6 mph N/A   Clear
3:15 PM 86.0 °F 48.2 °F 27% 29.68 in 10.0 mi West 13.8 mph 26.5 mph N/A   Clear
3:35 PM 86.0 °F 44.6 °F 23% 29.68 in 10.0 mi WNW 11.5 mph 20.7 mph N/A   Clear
3:55 PM 84.2 °F 44.6 °F 25% 29.68 in 10.0 mi West 16.1 mph - N/A   Partly Cloudy
4:15 PM 84.2 °F 46.4 °F 27% 29.67 in 10.0 mi West 11.5 mph - N/A   Partly Cloudy
4:35 PM 86.0 °F 44.6 °F 23% 29.67 in 9.0 mi WSW 13.8 mph 20.7 mph N/A   Scattered Clouds
4:55 PM 86.0 °F 44.6 °F 23% 29.66 in 10.0 mi West 18.4 mph - N/A   Partly Cloudy
5:15 PM 84.2 °F 44.6 °F 25% 29.66 in 9.0 mi West 17.3 mph 23.0 mph N/A   Partly Cloudy
5:35 PM 84.2 °F 44.6 °F 25% 29.66 in 10.0 mi West 13.8 mph 21.9 mph N/A   Partly Cloudy
5:55 PM 82.4 °F 46.4 °F 28% 29.65 in 10.0 mi West 16.1 mph - N/A   Scattered Clouds
6:15 PM 84.2 °F 44.6 °F 25% 29.65 in 10.0 mi West 16.1 mph - N/A   Scattered Clouds
6:55 PM 82.4 °F 48.2 °F 30% 29.66 in 10.0 mi WNW 13.8 mph 20.7 mph N/A   Clear
7:15 PM 78.8 °F 51.8 °F 39% 29.66 in 10.0 mi NW 16.1 mph - N/A   Partly Cloudy
7:35 PM 77.0 °F 51.8 °F 41% 29.67 in 10.0 mi NW 15.0 mph - N/A   Mostly Cloudy
7:55 PM 77.0 °F 55.4 °F 47% 29.68 in 10.0 mi NW 16.1 mph 21.9 mph N/A   Overcast
8:15 PM 73.4 °F 55.4 °F 53% 29.69 in 9.0 mi NW 18.4 mph 25.3 mph N/A   Partly Cloudy
8:35 PM 71.6 °F 55.4 °F 57% 29.70 in 10.0 mi NNW 18.4 mph 25.3 mph N/A   Partly Cloudy
8:55 PM 69.8 °F 55.4 °F 60% 29.71 in 10.0 mi NNW 17.3 mph 24.2 mph N/A   Partly Cloudy
9:15 PM 68.0 °F 55.4 °F 64% 29.72 in 10.0 mi NNW 16.1 mph - N/A   Mostly Cloudy
9:35 PM 66.2 °F 53.6 °F 64% 29.73 in 10.0 mi NNW 13.8 mph - N/A   Mostly Cloudy
9:55 PM 66.2 °F 55.4 °F 68% 29.74 in 10.0 mi NNW 9.2 mph - N/A   Mostly Cloudy
10:15 PM 66.2 °F 55.4 °F 68% 29.75 in 10.0 mi NNW 8.1 mph - N/A   Overcast
10:35 PM 64.4 °F 55.4 °F 73% 29.75 in 10.0 mi NNW 6.9 mph - N/A   Overcast
10:55 PM 64.4 °F 55.4 °F 73% 29.75 in 10.0 mi NW 6.9 mph - N/A   Overcast
11:15 PM 62.6 °F 57.2 °F 82% 29.76 in 10.0 mi WNW 4.6 mph - N/A   Overcast
11:35 PM 62.6 °F 57.2 °F 82% 29.76 in 10.0 mi NW 4.6 mph - N/A   Overcast
11:55 PM 60.8 °F 55.4 °F 82% 29.76 in 10.0 mi WNW 4.6 mph - N/A   Overcast